Eagle Lake, FL

6:36 PM EST on February 09, 2016 (GMT -0500)
Bartow Municipal

Weather History for KBOW - December, 2011

Change the Weather History Date:

Thursday, December 29, 2011

  Actual Average Record
Temperature  
Mean Temperature 56 °F -  
Max Temperature 64 °F 74 °F 86 °F (1981)
Min Temperature 48 °F 51 °F 24 °F (2010)
Degree Days  
Heating Degree Days 9    
Growing Degree Days 6 (Base 50)    
Moisture  
Dew Point 41 °F    
Average Humidity 57    
Maximum Humidity 87    
Minimum Humidity 37    
Precipitation  
Precipitation 0.00 in - - ()
Sea Level Pressure  
Sea Level Pressure 30.13 in    
Wind  
Wind Speed 2 mph (NNE)    
Max Wind Speed 6 mph    
Max Gust Speed -    
Visibility 11 miles    
Events      
Averages and records for this station are not official NWS values.
T = Trace of Precipitation, MM = Missing Value Source: NWS Daily Summary

Daily Weather History Graph

Daily Weather History Graph

Search for Another Location

Airport or City:

Trip Planner

Search our weather history database for the weather conditions in past years. The results will help you decide how hot, cold, wet, or windy it might be!

Date:

Astronomy

Dec. 29, 2011 Rise Set
Actual Time 7:17 AM EST 5:40 PM EST
Civil Twilight 6:51 AM EST 6:06 PM EST
Nautical Twilight 6:22 AM EST 6:35 PM EST
Astronomical Twilight 5:53 AM EST 7:04 PM EST
Moon 10:36 AM EST (12/29) 10:46 PM EST (12/29)
Length of Visible Light 11h 14m
Length of Day
10h 23m
Waxing Crescent, 26% of the Moon is Illuminated
Dec 29
Waxing Crescent
Jan 1
First Quarter
Jan 9
Full
Jan 16
Last Quarter
Jan 23
New

Hourly Weather History & Observations

Time (EST) Temp. Dew Point Humidity Pressure Visibility Wind Dir Wind Speed Gust Speed Precip Events Conditions
12:15 AM - - N/A% 30.16 in 10.0 mi North - - N/A   Clear
12:35 AM - - N/A% 30.16 in 10.0 mi North - - N/A   Clear
12:55 AM - - N/A% 30.16 in 10.0 mi North - - N/A   Clear
1:15 AM - - N/A% 30.15 in 10.0 mi North - - N/A   Clear
1:35 AM - - N/A% 30.15 in 10.0 mi North - - N/A   Clear
1:55 AM - - N/A% 30.15 in 10.0 mi North - - N/A   Clear
2:15 AM - - N/A% 30.14 in 10.0 mi North - - N/A   Clear
2:35 AM - - N/A% 30.14 in 10.0 mi North - - N/A   Clear
2:55 AM - - N/A% 30.15 in 10.0 mi North - - N/A   Clear
3:15 AM - - N/A% 30.14 in 10.0 mi North - - N/A   Clear
3:35 AM - - N/A% 30.13 in 10.0 mi North - - N/A   Clear
3:55 AM - - N/A% 30.14 in 10.0 mi North - - N/A   Clear
4:15 AM - - N/A% 30.14 in 10.0 mi North - - N/A   Clear
7:30 AM 48.2 °F 44.6 °F 87% 30.15 in 10.0 mi Calm Calm - N/A   Mostly Cloudy
7:50 AM 48.2 °F 44.6 °F 87% 30.16 in 10.0 mi Calm Calm - N/A   Mostly Cloudy
8:53 AM 51.8 °F 44.6 °F 76% 30.17 in 12.0 mi Calm Calm - N/A   Mostly Cloudy
9:50 AM 53.6 °F 44.6 °F 72% 30.21 in 12.0 mi North 5.8 mph - N/A   Mostly Cloudy
10:50 AM 57.2 °F 39.2 °F 51% 30.21 in 15.0 mi NE 5.8 mph - N/A   Scattered Clouds
11:55 AM 60.8 °F 37.4 °F 42% 30.17 in 15.0 mi NNE 5.8 mph - N/A   Partly Cloudy
12:50 PM 62.6 °F 37.4 °F 39% 30.13 in 15.0 mi NE 5.8 mph - N/A   Partly Cloudy
1:55 PM 64.4 °F 37.4 °F 37% 30.11 in 15.0 mi Variable 4.6 mph - N/A   Scattered Clouds
2:53 PM 64.4 °F 39.2 °F 40% 30.10 in 15.0 mi Variable 4.6 mph - N/A   Partly Cloudy
2:55 PM 64.4 °F 39.2 °F 40% 30.10 in 10.0 mi North - - N/A   Clear
3:35 PM - - N/A% 30.08 in 10.0 mi North - - N/A   Clear
3:55 PM - - N/A% 30.08 in 10.0 mi North - - N/A   Clear
4:15 PM - - N/A% 30.08 in 10.0 mi North - - N/A   Clear
4:35 PM - - N/A% 30.08 in 10.0 mi North - - N/A   Clear
5:15 PM - - N/A% 30.09 in 10.0 mi North - - N/A   Clear
5:35 PM - - N/A% 30.10 in 10.0 mi North - - N/A   Clear
5:55 PM - - N/A% 30.11 in 10.0 mi North - - N/A   Clear
6:15 PM - - N/A% 30.10 in 10.0 mi North - - N/A   Clear
6:55 PM - - N/A% 30.11 in 10.0 mi North - - N/A   Clear
7:15 PM - - N/A% 30.12 in 10.0 mi North - - N/A   Clear
7:35 PM - - N/A% 30.12 in 10.0 mi North - - N/A   Clear
7:55 PM - - N/A% 30.13 in 10.0 mi North - - N/A   Clear
8:15 PM - - N/A% 30.14 in 10.0 mi North - - N/A   Clear
8:35 PM - - N/A% 30.13 in 10.0 mi North - - N/A   Clear
9:15 PM - - N/A% 30.14 in 10.0 mi North - - N/A   Clear
9:35 PM - - N/A% 30.14 in 10.0 mi North - - N/A   Clear
9:55 PM - - N/A% 30.14 in 10.0 mi North - - N/A   Clear
10:15 PM - - N/A% 30.15 in 10.0 mi North - - N/A   Clear
10:35 PM - - N/A% 30.15 in 10.0 mi North - - N/A   Clear
11:15 PM - - N/A% 30.14 in 10.0 mi North - - N/A   Clear
11:35 PM - - N/A% 30.14 in 10.0 mi North - - N/A   Clear
11:55 PM - - N/A% 30.13 in 10.0 mi North - - N/A   Clear